Tracking 31027 objects as of 19-Jul-2025
HD Live streaming from Space Station
objects crossing your sky now

CZ-2C DEB

Track CZ-2C DEB now!
10-day predictions


NORAD ID: 40288
Int'l Code: 2014-066C
Perigee: 680.3 km
Apogee: 916.6 km
Inclination: 97.9 °
Period: 100.7 minutes
Semi major axis: 7169 km
RCS: Unknown
Launch date: October 27, 2014
Source: People's Republic of China (PRC)
Launch site: Jiuquan Satellite Launch Center, China (JSC)

Note: This is SATELLITE DEBRIS
Your satellite tracking list
MAROC TUBSAT
Track 1 satellite(s)




NASA's NSSDC Master Catalog

Two Line Element Set (TLE):
1 40288U 14066C   25199.82997543  .00002336  00000-0  79243-3 0  9994
2 40288  97.9367 342.9937 0164841 122.3228 239.4040 14.30121180556555
Source of the keplerian elements: AFSPC